Overview Statistics Trail Chart Weather Telemetry Raw packets
 

This is the latest recevied weather packets stored in our database for station/object LU1MQF-13. If no packets are shown the sender has not sent any weather packets the latest 10 day(s).

<< 28 29 30 31 32 33 34 >>
Time Temp. Humidity Pressure Rain* Wind** Luminosity Snow
1777359411 13.89° C 38% 940.2 hPa - - - -
1777358511 13.89° C 38% 940.3 hPa - - - -
1777357611 13.89° C 38% 940.3 hPa - - - -
1777356710 13.89° C 38% 940 hPa - - - -
1777355811 13.89° C 38% 940.2 hPa - - - -
1777354911 13.89° C 38% 940.1 hPa - - - -
1777354011 13.89° C 39% 939.9 hPa - - - -
1777353111 13.89° C 39% 939.8 hPa - - - -
1777352211 15° C 39% 940 hPa - - - -
1777351310 15° C 39% 940.2 hPa - - - -
1777350410 15° C 40% 940.4 hPa - - - -
1777349511 15° C 43% 940.5 hPa - - - -
1777348611 13.89° C 37% 940.6 hPa - - - -
1777347711 15° C 38% 940.4 hPa - - - -
1777346811 13.89° C 36% 940.5 hPa - - - -
1777345910 13.89° C 37% 940.4 hPa - - - -
1777345011 13.89° C 37% 940.3 hPa - - - -
1777344110 13.89° C 38% 940.4 hPa - - - -
1777343211 13.89° C 39% 939.9 hPa - - - -
1777342310 13.89° C 44% 940 hPa - - - -
1777341410 13.89° C 39% 939.8 hPa - - - -
1777340510 13.89° C 36% 940 hPa - - - -
1777339610 13.89° C 36% 939.4 hPa - - - -
1777338710 13.89° C 36% 939.3 hPa - - - -
1777337810 13.89° C 36% 939 hPa - - - -

* Rain since midnight (hover to see other rain measurements)
** Current wind speed in m/s (hover to see current wind gust speed)